Theta_e
355 357 350 351 346 343 340 338 337 336 336 338 337 330 327 326 323 324 325 328 328 328 326 325 327 337 332 336 334 326 323 322 325 326 325 325 324 325 325 325 328 336 326
356 357 352 349 346 343 339 338 337 335 336 338 337 332 328 323 323 325 327 329 333 337 334 333 334 334 328 330 328 323 323 324 326 325 325 325 325 327 330 331 334 335 333
356 358 350 348 345 342 339 338 336 333 334 337 338 333 329 324 323 325 327 331 339 337 337 336 335 329 323 323 322 323 324 325 328 335 336 344 342 339 337 337 337 337 336
358 358 349 347 344 341 338 337 335 332 330 334 337 334 330 327 322 325 327 330 336 336 335 332 328 325 323 322 323 324 326 328 337 339 342 342 342 341 341 339 336 332 331
359 356 353 346 343 341 338 336 334 331 328 327 335 332 329 330 323 325 327 331 332 332 330 330 329 324 323 323 327 325 333 336 340 343 345 345 346 343 342 338 336 337 338
359 357 351 346 343 341 338 335 333 330 326 325 330 328 327 331 324 324 327 330 329 331 331 330 326 323 323 323 330 332 333 338 340 348 347 347 347 344 342 336 338 339 338
358 357 348 345 343 341 338 336 333 329 324 322 326 328 327 330 327 323 327 329 328 328 327 327 323 323 323 324 326 331 340 340 345 344 348 348 348 343 340 337 340 339 337
356 356 351 344 343 340 338 337 334 330 324 320 323 326 326 330 328 322 327 329 329 328 328 328 324 323 324 324 334 339 338 341 343 343 346 347 344 342 337 341 340 338 329
356 355 356 345 343 340 338 337 334 331 325 319 321 323 326 329 328 322 325 327 329 329 328 325 323 323 323 328 338 339 338 342 342 342 344 345 340 339 340 340 339 331 324
357 356 355 352 345 341 338 337 334 332 328 320 321 322 326 329 328 323 324 327 328 327 330 322 322 322 323 324 332 335 337 340 341 342 343 346 338 339 340 339 330 326 324
357 356 355 354 351 348 346 338 335 333 330 324 321 321 327 330 329 324 324 327 328 328 327 322 322 322 323 323 323 325 329 336 336 338 343 339 339 339 339 335 328 325 323
358 357 356 355 353 350 347 345 336 334 331 327 322 321 328 339 339 340 337 326 328 332 324 324 322 321 322 330 324 323 326 331 333 338 344 340 339 338 335 329 327 327 327
344 357 355 356 354 351 348 348 344 344 342 337 333 326 334 341 342 341 344 332 331 332 325 323 321 321 328 331 330 329 333 337 341 342 344 340 338 333 328 329 329 328 326
329 343 354 356 355 353 350 348 346 344 344 344 343 338 340 342 344 344 343 343 341 337 335 335 332 331 333 333 334 336 341 344 344 343 346 337 338 330 330 330 328 326 326
320 325 344 355 355 354 352 349 348 346 345 345 345 343 340 341 343 343 343 341 340 338 337 336 334 334 334 337 340 342 344 345 344 345 344 339 338 331 330 329 327 327 328
319 320 326 345 348 351 351 351 350 348 345 345 345 344 340 340 342 342 343 342 340 338 336 335 333 334 337 339 342 345 346 346 346 344 343 343 339 332 330 330 328 329 329
318 319 316 321 344 348 347 352 351 349 347 346 344 344 339 336 342 336 333 341 339 339 337 337 333 334 339 341 344 347 347 347 346 345 344 343 341 333 331 330 329 329 330
318 319 319 318 324 344 348 350 352 351 349 347 345 345 338 337 339 330 337 339 339 339 338 336 333 333 340 342 344 346 347 348 346 345 344 342 340 340 338 332 330 330 331
318 319 315 315 316 335 347 348 350 350 351 349 347 345 344 335 335 332 338 339 340 338 338 335 334 336 340 342 344 347 347 348 348 346 344 341 341 339 340 337 333 331 331
318 318 314 314 315 329 343 345 348 348 352 352 349 346 345 339 334 331 337 337 333 333 337 336 335 337 341 342 344 347 346 345 344 343 342 340 340 337 335 335 335 335 332
317 318 314 314 315 319 334 343 353 347 353 352 352 349 347 343 337 335 333 329 327 336 336 334 335 341 343 345 347 344 343 344 343 341 341 338 334 333 333 332 331 329 326
318 318 320 321 314 314 329 339 342 345 352 351 349 350 348 346 340 337 334 334 328 334 325 333 333 338 343 345 345 345 343 338 338 340 339 336 333 331 329 330 329 327 323
319 319 320 321 321 315 318 337 343 347 347 346 345 346 347 346 344 341 338 336 330 330 332 328 331 337 341 346 345 345 345 343 339 332 334 331 330 330 328 326 326 324 321
318 318 318 320 317 317 320 331 339 341 340 340 341 344 347 346 344 344 341 336 332 326 329 331 338 335 340 344 344 344 344 340 338 334 328 327 327 327 326 322 321 321 317
321 322 322 321 314 315 333 330 338 340 339 341 343 344 340 346 346 344 343 339 334 329 332 336 342 334 343 343 345 344 343 341 337 335 336 329 325 322 321 320 319 315 311
320 321 323 324 324 320 330 338 340 340 341 342 344 343 342 344 343 343 342 342 336 331 326 325 341 337 343 346 346 343 342 340 337 336 334 333 329 324 319 317 315 311 308
Wind_Speed
12 23 26 24 21 20 20 20 18 18 18 16 14 14 16 16 17 18 18 18 18 16 16 16 15 13 10 11 10 11 13 15 15 14 13 13 12 11 10 9 8 5 3
15 22 26 24 22 20 19 19 18 17 17 16 14 14 15 16 18 19 18 18 16 15 15 14 14 12 10 11 12 12 14 15 14 14 13 11 10 9 8 7 7 3 2
16 21 26 24 22 20 20 19 18 16 16 16 14 14 16 16 19 19 18 17 16 15 14 13 12 11 11 13 13 14 15 15 14 12 11 6 3 7 7 6 5 4 5
18 21 27 25 23 21 20 19 18 17 16 16 16 16 16 17 19 19 18 16 15 14 13 13 12 11 13 14 15 16 16 15 13 10 7 6 3 4 5 5 5 6 7
18 22 25 26 24 22 21 20 18 17 17 17 18 17 18 17 18 19 18 16 14 13 13 12 11 12 13 15 16 16 15 13 10 8 3 3 3 1 3 4 6 7 8
16 20 25 27 25 23 21 20 18 17 17 18 19 18 18 18 18 20 18 16 14 13 12 12 11 11 13 15 16 15 13 11 7 2 3 5 4 6 3 4 6 8 10
15 19 24 28 26 23 21 20 18 17 17 18 19 19 19 19 19 20 19 16 14 12 11 11 11 11 13 15 15 14 11 9 7 3 1 4 6 4 3 5 8 11 13
15 18 21 28 27 24 22 20 19 17 17 18 20 19 19 19 19 20 19 16 14 12 11 10 10 11 12 14 14 13 11 8 3 3 2 2 7 4 3 6 10 13 13
14 17 18 28 27 25 23 21 19 18 17 18 19 20 20 20 20 20 19 17 15 13 12 11 11 11 12 13 14 12 10 8 5 4 3 3 5 4 4 8 12 12 9
13 17 17 20 26 26 25 23 20 18 18 18 19 20 21 21 21 21 20 18 16 14 13 12 11 11 11 12 14 13 11 9 4 5 4 10 6 4 6 11 11 9 7
11 15 18 20 21 21 19 25 23 21 19 18 19 21 21 21 21 22 21 20 17 16 14 13 13 12 11 11 12 13 12 8 8 6 6 10 5 5 7 11 9 6 4
9 15 18 20 21 21 20 21 25 24 23 22 22 23 23 19 19 17 19 20 19 18 16 15 14 13 12 9 9 11 11 9 8 8 8 8 5 6 9 8 7 5 5
6 12 18 20 22 22 22 20 21 19 19 21 22 24 22 18 17 18 16 21 20 19 17 16 16 14 12 11 11 9 8 9 7 7 10 6 6 7 6 6 6 5 5
7 9 15 21 22 24 23 22 21 22 22 21 22 24 22 20 18 19 16 16 17 16 14 14 13 12 13 13 11 10 10 8 7 6 10 6 7 7 6 6 6 5 6
9 9 13 17 22 24 27 24 24 25 25 23 23 25 23 22 21 19 18 17 16 16 16 15 14 14 14 13 11 11 10 9 9 6 7 7 8 8 7 7 7 7 8
11 10 12 17 21 22 26 27 26 26 26 25 24 24 28 23 22 21 20 19 17 17 16 15 15 14 14 13 12 11 11 10 9 8 6 11 11 10 10 10 9 9 11
15 13 14 21 21 24 26 28 28 27 26 27 27 28 30 29 26 25 24 20 18 17 18 17 16 16 15 14 13 12 10 11 10 9 8 7 11 11 12 12 11 12 14
19 18 17 16 20 25 26 26 28 28 27 27 27 27 32 31 29 27 23 22 20 19 18 16 16 16 16 15 14 13 12 11 11 10 9 9 9 9 14 13 14 15 16
25 23 24 22 23 24 26 26 28 30 31 29 28 28 30 33 32 29 23 22 25 22 19 17 17 17 18 16 15 15 12 12 11 11 11 11 10 10 9 15 16 18 20
26 26 30 26 22 25 26 27 29 31 34 29 30 29 29 33 36 35 25 23 26 25 20 19 18 18 17 17 16 12 8 9 9 9 10 10 10 11 10 14 10 16 18
25 25 30 30 23 20 26 30 31 34 36 32 30 31 31 33 34 33 31 30 29 24 23 25 21 19 18 17 17 11 11 16 16 15 14 10 12 11 15 15 8 6 12
24 23 22 24 28 23 23 28 31 31 35 31 29 32 31 29 35 35 33 30 30 26 29 27 26 22 21 20 19 15 10 9 12 16 17 16 16 11 11 14 16 17 15
21 22 23 22 20 25 21 23 24 28 30 29 36 36 36 34 31 33 32 31 32 30 28 32 29 27 23 19 22 15 9 11 11 9 16 14 16 14 15 15 17 18 19
12 16 20 21 23 22 21 22 26 26 30 30 29 36 36 34 33 30 31 33 34 34 31 30 30 28 30 23 20 23 18 8 8 5 9 15 16 17 18 13 16 18 18
8 8 10 14 20 22 18 21 23 25 24 22 27 33 33 33 36 33 30 32 35 37 31 30 32 33 31 28 23 19 27 17 15 14 14 9 10 12 13 13 14 13 17
9 8 8 9 10 14 18 19 23 23 23 23 26 29 31 32 32 39 35 31 36 38 39 38 30 34 31 25 24 23 19 20 12 13 14 9 10 10 9 11 11 11 15
Wind_Direction
177 176 175 174 176 174 174 174 172 171 169 165 155 146 153 159 156 153 152 152 151 152 154 161 166 159 151 152 151 145 139 134 129 125 127 119 115 111 104 96 92 54 58
178 181 179 177 180 178 176 175 174 173 172 169 162 153 160 162 161 158 156 155 155 157 159 159 163 163 158 157 157 149 142 136 130 122 119 113 110 108 101 91 87 136 26
175 181 182 181 183 182 178 178 177 178 179 177 170 165 169 168 166 163 161 160 160 159 162 166 169 167 160 160 158 150 145 140 133 127 119 97 121 99 90 78 57 27 360
178 182 185 185 186 185 183 182 182 185 186 184 181 177 176 174 171 169 167 168 169 171 171 173 172 168 162 162 157 151 147 143 139 130 90 140 136 88 72 50 21 5 355
178 185 187 189 189 189 188 188 188 193 191 190 187 184 181 179 176 174 174 172 174 178 178 178 177 170 165 163 158 155 151 147 142 114 168 177 145 266 27 16 359 350 345
176 179 196 191 191 194 194 192 196 199 199 196 193 189 185 184 182 180 179 176 177 178 181 185 182 173 170 168 165 158 162 162 149 121 231 225 165 249 322 353 352 338 330
180 180 196 192 193 197 198 197 203 206 203 200 197 193 189 188 187 185 185 182 181 181 186 191 185 180 176 174 174 177 171 163 128 263 281 202 207 243 311 344 336 329 325
185 184 197 194 194 199 202 204 207 209 208 204 200 196 194 193 191 191 191 190 190 192 196 202 193 190 186 185 184 182 177 173 145 223 191 191 240 264 306 328 328 327 325
192 189 193 197 197 199 205 210 210 211 210 208 205 201 198 196 195 196 197 197 199 204 204 208 202 198 196 192 191 194 193 187 158 247 213 248 260 264 307 325 329 329 335
194 194 194 191 200 202 205 208 211 213 212 210 208 206 202 199 200 201 201 204 207 209 210 212 208 206 203 201 203 208 209 209 197 228 235 238 252 279 310 327 327 332 335
203 200 195 198 198 196 202 210 208 209 212 210 210 207 205 204 204 205 204 208 209 209 211 212 213 211 208 208 208 211 215 218 232 229 238 259 242 285 313 319 325 333 343
224 212 206 207 200 197 202 207 210 211 207 207 207 208 206 200 204 204 211 212 209 211 212 214 216 213 209 213 215 210 208 219 211 224 232 243 264 294 307 310 324 326 328
248 225 213 216 208 203 204 205 200 204 204 205 206 209 202 203 205 199 213 211 211 214 214 216 217 214 210 206 210 206 204 209 207 216 237 245 274 294 296 303 306 315 323
254 239 227 218 217 211 209 210 206 204 205 205 206 209 200 203 206 202 207 208 207 214 205 212 213 208 212 207 205 205 204 209 227 219 244 257 274 282 281 287 301 309 318
265 250 236 225 223 220 210 216 209 208 209 208 209 211 203 206 207 204 208 206 212 209 212 210 207 212 209 207 204 206 213 218 221 226 254 264 276 271 274 279 286 298 307
265 267 238 232 229 228 222 215 216 213 213 210 211 211 211 208 212 209 207 207 209 210 210 211 210 209 205 209 211 215 217 225 217 225 244 280 275 264 267 275 280 292 301
264 268 260 232 232 229 233 221 221 221 214 215 213 215 217 215 215 214 215 211 214 212 206 206 207 205 207 212 213 223 222 217 222 223 229 243 279 262 268 276 280 287 293
258 259 261 259 239 234 226 223 221 223 220 219 217 217 221 220 216 223 216 214 211 208 212 212 213 207 210 214 219 222 225 223 222 233 240 246 249 263 289 275 275 281 288
256 258 256 257 251 231 230 226 225 225 223 221 219 217 222 223 223 224 216 214 210 207 208 210 212 207 211 211 218 228 212 228 227 240 238 254 257 250 263 280 278 279 284
257 253 254 256 257 230 227 231 225 224 223 220 220 217 219 224 230 231 221 218 218 217 210 207 212 215 211 215 219 220 206 217 226 232 246 256 246 255 267 259 282 286 289
257 252 244 248 247 240 226 225 225 223 224 221 220 220 214 223 225 228 227 229 223 214 208 214 212 212 212 212 209 215 228 241 243 243 250 243 258 265 267 269 256 255 302
262 257 251 241 243 245 231 229 226 225 226 224 222 222 218 218 227 225 225 226 227 218 222 217 211 206 216 217 211 228 218 231 237 243 251 254 255 259 271 270 272 279 279
260 255 249 244 243 243 230 229 229 227 231 232 232 228 228 223 221 220 222 220 229 220 220 221 218 203 215 220 213 222 228 237 197 242 249 242 256 259 265 274 278 284 290
274 265 258 250 243 242 241 219 221 223 227 232 231 236 230 232 220 220 220 222 229 227 217 222 220 212 207 219 225 228 231 238 225 225 248 252 259 262 265 266 283 292 296
312 297 281 277 254 241 232 220 223 225 230 231 234 232 234 234 232 219 218 222 225 227 216 211 211 214 221 215 218 226 230 244 247 233 264 245 257 254 267 275 275 293 305
318 320 324 318 308 256 233 235 223 226 225 230 227 232 234 227 235 224 218 220 223 225 224 220 214 215 214 224 214 223 228 229 257 253 253 262 255 251 261 276 292 294 304